"Pseudo-MPEC" for C8GVW82

Created 2022 Dec 12 18:22:04 UT using Find_Orb

Click here for an explanation of pseudo-MPECs

 
 Astrometry: 
     C8GVW82*1C2022 11 26.25784404 11 05.039+36 16 37.38   ~BQ77 21.58GVNEOCPG96
     C8GVW82 1C2022 11 26.26305904 11 04.564+36 16 31.94   ~BQ77 21.40GVNEOCPG96
     C8GVW82 1C2022 11 26.26824904 11 04.031+36 16 26.51   ~BQ77 21.27GVNEOCPG96
     C8GVW82 1C2022 11 26.27349004 11 03.577+36 16 21.65   ~BQ77 21.32GVNEOCPG96
     C8GVW82 1C2022 11 26.46797104 10 45.080+36 12 52.40   ~BQCM       VNEOCPG96
     C8GVW82 1C2022 11 26.47532104 10 44.440+36 12 45.40   ~BQCM 22.16GVNEOCPG96
     C8GVW82 1C2022 11 26.48998504 10 43.090+36 12 30.30   ~BQCM       VNEOCPG96
     C8GVW82 1C2022 11 27.47806604 09 13.090+35 54 49.50   ~BRCM 21.70GVNEOCPG96
     C8GVW82 1C2022 11 27.48159904 09 12.750+35 54 45.90   ~BRCM 21.45GVNEOCPG96
     C8GVW82 1C2022 11 27.48623804 09 12.240+35 54 41.40   ~BRCM       VNEOCPG96

Station data:
(G96) Mt. Lemmon Survey  (N32.442751 W110.788720)  US/Arizona.  Observers T.
   A. Pruyne, B. M. Africano, E. J. Christensen, G. A. Farneth, D. C. Fuls,
   A. R. Gibbs, A. D. Grauer, H. Gröller, J. A. Johnson, R. A. Kowalski, S.
   M. Larson, G. J. Leonard, D. Rankin, R. L. Seaman, F. C. Shelly, K. W.
   Wierzchoś. 1.5-m reflector + 10K CCD.

Orbital elements:  C8GVW82
   Perihelion 2024 Mar 6.25186 +/- 259 TT =  6:02:40 (JD 2460375.75186)
Epoch 2022 Nov 27.0 TT = JDT 2459910.5   Earth MOID: 0.7875      AutoNEOCP
M 185.30614763 +/- 100              (J2000 ecliptic)
n   0.37548233 +/- 0.0597           Peri.  335.62941 +/- 70
a   1.90287259 +/- 0.202            Node   264.00601 +/- 3.7
e   0.0561477 +/- 0.148             Incl.   23.11711 +/- 6
P   2.62/958.75d           H 19.70  G  0.15   U 10.9  SR
q 1.79603052 +/- 0.197    Q 2.00971467 +/- 0.599
From 10 observations 2022 Nov. 26-27 (29.5 hr); mean residual 0".47
Residuals in arcseconds: 
221126 G96  .12+  .34-    221126 G96  .74-  .71-    221127 G96  .33+  .15-    
221126 G96  .37+  .30-    221126 G96  .20-  .27+    221127 G96  .66-  .48+    
221126 G96  .11-  .27-    221126 G96  .04-  1.1+    
221126 G96  .43+  .39+    221127 G96  .50+  .46-    

Ephemerides (geocentric):
Date (UTC) HH   RA             Dec           delta  r     elong  mag " sig PA
---- --------  ------------   ------------  ------ ------ -----  --- --------
2022 12 12 18  03 48 36.267   +30 53 27.60  1.0587 2.0079 158.6 22.0 1604 123
2022 12 12 19  03 48 33.484   +30 52 36.17  1.0588 2.0079 158.6 22.0 1612 123
2022 12 12 20  03 48 30.706   +30 51 44.74  1.0589 2.0079 158.6 22.0 1620 123
2022 12 12 21  03 48 27.932   +30 50 53.32  1.0591 2.0079 158.5 22.0 1628 123
2022 12 12 22  03 48 25.162   +30 50 01.89  1.0592 2.0079 158.5 22.0 1636 123
2022 12 12 23  03 48 22.396   +30 49 10.46  1.0594 2.0079 158.4 22.0 1645 123
2022 12 13 00  03 48 19.634   +30 48 19.04  1.0595 2.0079 158.4 22.0 1653 123
2022 12 13 01  03 48 16.875   +30 47 27.62  1.0597 2.0078 158.3 22.0 1661 123
2022 12 13 02  03 48 14.121   +30 46 36.20  1.0598 2.0078 158.3 22.1 1669 123
2022 12 13 03  03 48 11.371   +30 45 44.77  1.0599 2.0078 158.3 22.1 1678 123
2022 12 13 04  03 48 08.625   +30 44 53.36  1.0601 2.0078 158.2 22.1 1686 123
2022 12 13 05  03 48 05.884   +30 44 01.94  1.0602 2.0078 158.2 22.1 1694 123
2022 12 13 06  03 48 03.146   +30 43 10.52  1.0604 2.0078 158.1 22.1 1702 123
2022 12 13 07  03 48 00.412   +30 42 19.11  1.0605 2.0078 158.1 22.1 1711 123
2022 12 13 08  03 47 57.682   +30 41 27.70  1.0607 2.0078 158.0 22.1 1719 123
2022 12 13 09  03 47 54.957   +30 40 36.29  1.0608 2.0078 158.0 22.1 1728 123
2022 12 13 10  03 47 52.235   +30 39 44.88  1.0610 2.0078 158.0 22.1 1736 123
2022 12 13 11  03 47 49.518   +30 38 53.48  1.0611 2.0078 157.9 22.1 1744 123
2022 12 13 12  03 47 46.804   +30 38 02.08  1.0613 2.0078 157.9 22.1 1753 123
2022 12 13 13  03 47 44.095   +30 37 10.68  1.0614 2.0078 157.8 22.1 1761 123
2022 12 13 14  03 47 41.390   +30 36 19.28  1.0616 2.0078 157.8 22.1 1770 123
2022 12 13 15  03 47 38.689   +30 35 27.88  1.0617 2.0078 157.7 22.1 1778 123
2022 12 13 16  03 47 35.992   +30 34 36.49  1.0619 2.0078 157.7 22.1 1787 123
2022 12 13 17  03 47 33.299   +30 33 45.10  1.0620 2.0078 157.7 22.1 1795 123
2022 12 13 18  03 47 30.611   +30 32 53.71  1.0622 2.0078 157.6 22.1 1804 123
2022 12 13 19  03 47 27.926   +30 32 02.33  1.0623 2.0078 157.6 22.1 1812 123
2022 12 13 20  03 47 25.246   +30 31 10.95  1.0625 2.0077 157.5 22.1 1821 123
2022 12 13 21  03 47 22.569   +30 30 19.57  1.0626 2.0077 157.5 22.1 1829 122
2022 12 13 22  03 47 19.897   +30 29 28.20  1.0628 2.0077 157.4 22.1 1838 122
2022 12 13 23  03 47 17.229   +30 28 36.83  1.0629 2.0077 157.4 22.1 1846 122
2022 12 14 00  03 47 14.565   +30 27 45.46  1.0631 2.0077 157.4 22.1 1855 122
2022 12 14 01  03 47 11.905   +30 26 54.10  1.0632 2.0077 157.3 22.1 1864 122
2022 12 14 02  03 47 09.250   +30 26 02.74  1.0634 2.0077 157.3 22.1 1872 122
2022 12 14 03  03 47 06.598   +30 25 11.38  1.0635 2.0077 157.2 22.1 1881 122
2022 12 14 04  03 47 03.951   +30 24 20.03  1.0637 2.0077 157.2 22.1 1890 122
2022 12 14 05  03 47 01.308   +30 23 28.68  1.0639 2.0077 157.1 22.1 1898 122
2022 12 14 06  03 46 58.669   +30 22 37.34  1.0640 2.0077 157.1 22.1 1907 122
2022 12 14 07  03 46 56.034   +30 21 46.00  1.0642 2.0077 157.0 22.1 1916 122
2022 12 14 08  03 46 53.404   +30 20 54.66  1.0643 2.0077 157.0 22.1 1925 122
2022 12 14 09  03 46 50.777   +30 20 03.33  1.0645 2.0077 157.0 22.1 1933 122
2022 12 14 10  03 46 48.155   +30 19 12.00  1.0647 2.0077 156.9 22.1 1942 122
2022 12 14 11  03 46 45.537   +30 18 20.68  1.0648 2.0077 156.9 22.1 1951 122
2022 12 14 12  03 46 42.923   +30 17 29.36  1.0650 2.0077 156.8 22.1 1960 122
2022 12 14 13  03 46 40.314   +30 16 38.05  1.0651 2.0077 156.8 22.1 1969 122
2022 12 14 14  03 46 37.708   +30 15 46.74  1.0653 2.0077 156.7 22.1 1977 122
2022 12 14 15  03 46 35.107   +30 14 55.44  1.0655 2.0076 156.7 22.1 1986 122
2022 12 14 16  03 46 32.510   +30 14 04.14  1.0656 2.0076 156.7 22.1 1995 122
2022 12 14 17  03 46 29.917   +30 13 12.85  1.0658 2.0076 156.6 22.1 2004 122